www.pogodaiklimat.ru

Погода и климат >> Архив погоды >> Соломоновы Острова >> Манда


ПОГОДА в Манде

  • Прогноз погоды в Манде
  • Монитор погоды в Манде

АРХИВ ПОГОДЫ в Манде

Время (UTC), дата Ветер
(напр.,м/с)
 
Видим.   Явления Облачность Т
(С)
Тd
(С)
f
(%)
Тe
(С)
Тes
(С)
Комфортность P
(гПа)
Po
(гПа)
Тmin
(С)
Tmax
(С)
R
(мм)
R24
(мм)
S
(см)
03 19.04 Ю 3 20 км осадки на расстоянии 9/6 570 м
[Cb cap Ac As]
+30.2 +24.3 71 +42 +45 опасность
перегрева
1008.1 1007.4
06 19.04 штиль 0 20 км мгла 9/4 540 м
[Cb cap Ac trans Cs]
+29.9 +25.6 78 +44 +45 опасность
перегрева
1007.1 1006.4
09 19.04 штиль 0 20 км осадки на расстоянии {морось} 10/8 480 м
[Cu Sc Ac trans Cs]
+26.5 +24.6 89 +37 +37 очень
душно
1009.6 1008.9 0.5
12 19.04 В 4 20 км осадки на расстоянии {морось} 10/6 480 м
[Cu Sc Ac As]
+26.2 +24.4 90 +37 +37 очень
душно
1009.9 1009.2 2
21 19.04 штиль 0 20 км мгла 9/4 480 м
[Cu Sc Ac As]
+26.0 +25.7 98 +38 +38 очень
душно
1008.6 1007.9 6
00 20.04 штиль 0 20 км мгла 8/3 540 м
[Cu Sc Ac trans Cs]
+29.2 +24.6 76 +41 +48 опасность
перегрева
1009.8 1009.1 +25.3 8
18 20.04 штиль 0 20 км мгла 8/1 480 м
[Cu med, cong Ac trans]
+24.1 +23.6 97 +33 +33 очень
душно
1006.7 1006.0
21 20.04 штиль 0 30 км 9/1 480 м
[Cu med, cong Ac trans Cs]
+26.0 +25.1 95 +37 +38 очень
душно
1007.8 1007.1
00 21.04 Ю 2 30 км 4/1 540 м
[Cu med, cong Ac trans Ci sp]
+30.1 +24.9 74 +43 +56 опасность
перегрева
1009.7 1009.0 +25.4 3
03 21.04 ЮЗ 2 30 км 3/3 540 м
[Cb cap Ac trans Cs]
+30.5 +24.8 72 +44 +57 опасность
перегрева
1007.6 1006.9
09 21.04 штиль 0 20 км мгла 4/4 480 м
[Cu Sc Ac trans Cs]
+26.5 +25.9 97 +40 +40 очень
душно
1008.8 1008.1
18 21.04 СВ 2 25 км мгла 4/1 450 м
[Cu Sc Ac trans Ci fib]
+24.5 +23.8 96 +33 +33 очень
душно
1007.7 1007.0 0.4
21 21.04 штиль 0 30 км 3/1 480 м
[Cb cap Ac trans Ci sp]
+27.2 +24.9 87 +39 +41 очень
душно
1009.4 1008.7
00 22.04 СВ 2 20 км мгла 5/3 540 м
[Cb cap Ac trans Ci ing]
+31.0 +25.7 73 +46 +55 опасность
перегрева
1010.3 1009.6 +24.9 0.6
03 22.04 штиль 0 25 км осадки на расстоянии 9/4 540 м
[Cu Sc Ac trans Cs]
+29.3 +25.8 81 +43 +47 опасность
перегрева
1008.4 1007.7
06 22.04 В 2 25 км мгла 9/1 500 м
[Cu Sc Ac As]
+28.0 +25.2 85 +41 +42 опасность
перегрева
1007.9 1007.2 0.6
09 22.04 В 3 25 км мгла 8/1 480 м
[Cu med, cong Ac trans Cs]
+27.2 +24.6 86 +39 +39 очень
душно
1009.3 1008.6
12 22.04 штиль 0 25 км мгла 6/1 480 м
[Cu med, cong Ac trans Cs]
+25.8 +24.9 95 +37 +37 очень
душно
1010.3 1009.6
21 22.04 штиль 0 18 км мгла 8/1 500 м
[Cu med, cong Ac trans Cs]
+27.2 +25.6 91 +40 +41 очень
душно
1010.9 1010.2
03 23.04 С 3 10 км осадки на расстоянии 9/9 500 м
[Cb cap]
+27.6 +24.8 85 +39 +43 очень
душно
1008.9 1008.2
06 23.04 В 2 12 км слаб. дождь 9/6 500 м
[Cu Sc Ac As]
+26.7 +25.4 93 +39 +40 очень
душно
1008.5 1007.8 3
09 23.04 СВ 2 15 км осадки на расстоянии 9/4 480 м
[Cu Sc Ac trans Cs]
+26.2 +24.6 91 +37 +37 очень
душно
1009.8 1009.1 0.3
12 23.04 СВ 2 12 км осадки на расстоянии {морось} 10/5 480 м
[Cu Sc Ac As]
+25.4 +24.6 95 +36 +36 очень
душно
1011.2 1010.5 0.3
21 23.04 штиль 0 20 км мгла 6/5 480 м
[Cu Sc Ac trans Ci sp]
+26.0 +24.6 92 +37 +38 очень
душно
1010.7 1010.0 0.7
00 24.04 штиль 0 20 км мгла 5/4 540 м
[Cu Sc Ac trans Ci sp]
+28.9 +25.3 81 +42 +54 опасность
перегрева
1010.6 1009.9 +24.6 4
03 24.04 В 3 18 км осадки на расстоянии 9/6 540 м
[Cb cap Ac trans Cs]
+30.1 +26.1 79 +45 +48 опасность
перегрева
1008.0 1007.3
06 24.04 штиль 0 15 км в посл. час ливневой дождь 6/4 540 м
[Cu med, cong Ac trans Ci ing]
+28.0 +25.6 87 +41 +43 опасность
перегрева
1007.6 1006.9 4
09 24.04 штиль 0 10 км мгла 5/3 500 м
[Cu med, cong Ac trans Ci ing]
+26.1 +25.3 95 +38 +38 очень
душно
1008.8 1008.1 0.6
12 24.04 штиль 0 10 км зарница {ливн. осадки} 5/3 500 м
[Cb cap Ac trans Ci ing]
+26.0 +25.6 98 +38 +38 очень
душно
1010.4 1009.7 0.2
15 24.04 штиль 0 25 км мгла 3/1 480 м
[Cb cap Ci ing]
+25.0 +24.3 96 +35 +35 очень
душно
1008.8 1008.1
18 24.04 В 2 25 км мгла 9/1 480 м
[Cu Sc Ac trans Cs]
+25.8 +24.6 93 +36 +36 очень
душно
1008.2 1007.5
21 24.04 штиль 0 25 км осадки на расстоянии 6/1 480 м
[Cu Sc Ac trans Cs]
+27.1 +24.3 85 +38 +39 очень
душно
1009.8 1009.1
00 25.04 В 2 30 км 4/1 540 м
[Cu med, cong Ac trans Ci sp]
+31.5 +25.2 69 +45 +58 опасность
перегрева
1010.3 1009.6 +25.2 5
03 25.04 ЮЗ 2 30 км 3/1 570 м
[Cu med, cong Ci sp]
+31.5 +26.4 74 +48 +63 опасность
перегрева
1007.0 1006.3
06 25.04 штиль 0 20 км мгла 5/4 540 м
[Cu med, cong Ac trans Ci sp]
+29.0 +25.6 82 +43 +45 опасность
перегрева
1006.4 1005.7
09 25.04 штиль 0 20 км мгла 4/1 480 м
[Cu med, cong Ac trans Cs]
+27.0 +25.9 94 +40 +40 очень
душно
1008.1 1007.4
12 25.04 штиль 0 20 км осадки на расстоянии {ливн. осадки} 4/4 480 м
[Cu Sc Ac trans Ci sp]
+27.0 +26.3 96 +41 +41 опасность
перегрева
1009.1 1008.4 0.8
15 25.04 штиль 0 25 км мгла 1/1 480 м
[Cu med, cong Ci fib]
+25.0 +24.4 96 +35 +35 очень
душно
1008.2 1007.5
18 25.04 В 2 25 км мгла 3/3 480 м
[Cu med, cong Ac trans Ci fib]
+25.3 +24.5 95 +35 +35 очень
душно
1007.7 1007.0
21 25.04 штиль 0 15 км осадки на расстоянии {ливн. осадки} 6/6 500 м
[Cb cap Ac trans Ci fib]
+26.3 +25.8 97 +39 +40 очень
душно
1008.9 1008.2 0.3
00 26.04 В 2 20 км мгла 4/1 540 м
[Cu Sc Ac trans Ci ing]
+29.8 +25.8 79 +44 +56 опасность
перегрева
1009.1 1008.4 +25.3 1

 

Местоположение метеостанции Манда (Соломоновы Острова): широта -8.33 долгота 157.26 высота над уровнем моря 6 м.

В архиве по умолчанию представлена погода в Манде за последнюю неделю. Архивные данные за месяц целиком и за предыдущие месяцы, начиная с января 2011 года, Вы можете получить, выбрав интересующий диапазон дат из раскрывающегося списка и нажав кнопку "Ввод!".


*Определитесь, кто Вы:
робот инопланетянин человек

Внимание! Время в таблицах - всемирное. Для получения местного времени необходимо прибавить поправку, которая равна 11 ч.

Смотрите также архив погоды в соседних городах и на ближайших метеорологических станциях:

Погода на Острове Таро (Соломоновы Острова) (204 км)
Погода в Хониаре (Соломоновы Острова) (322 км)
Погода в Хониара аэропорту (Соломоновы Острова) (330 км)
Погода в Ауки (Соломоновы Острова) (385 км)
Погода на Мисиме (Папуа Новая Гвинея) (552 км)
Погода в Токуа (Папуа Новая Гвинея) (701 км)
Погода в Герни (Папуа Новая Гвинея) (792 км)
Погода в Кавиенге (Папуа Новая Гвинея) (959 км)
Погода на Островах Санта-Круз (Соломоновы Острова) (972 км)
Погода на Атолле Капингамаранги (Микронезия) (1083 км)

Пояснения к столбцам:

Ветер - указаны скорость ветра в м/с - средняя за 10 мин, порывы в срок и между сроками (в фигурных скобках) и направление, откуда дует ветер: С - северный, СВ - северо-восточный, В - восточный, ЮВ - юго-восточный, Ю - южный, ЮЗ - юго-западный, З - западный, СЗ - северо-западный.
Видимость - горизонтальная дальность видимости в метрах или километрах. При видимости от 1 до 10 км при отсутствии осадков обычно наблюдается дымка, при ухудшении видимости до 1 км и менее - туман. В сухую погоду видимость может ухудшаться дымом, пылью или мглою.
Явления - указаны атмосферные явления, наблюдавшиеся в срок или в последний час перед сроком; фигурными скобками обозначены явления, наблюдавшиеся между сроками (за 1-3 часа до срока); квадратными скобками обозначены град или гололедные отложения с указанием их диаметра в мм.
Облачность - указаны через наклонную черту общая и нижняя облачность в баллах и высота нижней границы облаков в метрах; квадратными скобками обозначены формы облаков: Ci - перистые, Cs - перисто-слоистые, Cc - перисто-кучевые, Ac - высококучевые, As - высокослоистые, Sc - слоисто-кучевые, Ns - слоисто-дождевые, Cu - кучевые, Cb - кучево-дождевые. Подробнее классификацию облаков см. в Атласе облаков (PDF).
T - Температура воздуха - температура, измеренная на высоте 2 м над землей.
Td - Температура точки росы - температура, при понижении до которой содержащийся в воздухе водяной пар достигнет насыщения.
f - Относительная влажность воздуха - влажноcть воздуха, измеренная на высоте 2 м над землей.
Te - Эффективная температура - температура, которую ощущает одетый по сезону человек в тени. Характеристика душности погоды. При расчете учитывается влияние влажности воздуха и скорости ветра на теплоощущения человека.
Tes - Эффективная температура на солнце - температура, которую ощущает человек, с поправкой на солнечный нагрев. Характеристика знойности погоды. Зависит от высоты солнца над горизонтом, облачности и скорости ветра. Ночью, в пасмурную погоду, а также при ветре 12 м/с и более поправка равна нулю.
P - Атмосферное давление - приведенное к уровню моря атмосферное давление.
Po - Атмосферное давление - измеренное на уровне метеостанции атмосферное давление.
Tmin - Минимальная температура - минимум температуры воздуха на высоте 2 м над землей.
Tmax - Максимальная температура - максимум температуры воздуха на высоте 2 м над землей.
R - Количество осадков - Количество выпавших осадков за период времени, мм. При наведении курсора мыши на число - период времени, за который выпало указанное количество осадков.
R24 - Количество осадков - Количество выпавших осадков за 24 часа, мм.
S - Снежный покров - Высота снежного покрова, см. При наведении курсора мыши на число - состояние снежного покрова и степень покрытия местности в баллах.